Regional Weather Roundup
Issued by NWS Little Rock, AR

Home | Current Version | Previous Version | Text Only | Print | Product List | Glossary Off
Versions: 1 2 3 4 5 6 7 8 9 10 11 12 13 14 15 16 17 18 19 20 21 22 23 24 25 26 27 28 29 30 31 32 33 34 35 36 37 38 39 40 41 42 43 44 45 46 47 48 49 50

000
ASUS44 KLZK 171005
RWRLZK

WEATHER ROUNDUP FOR ARKANSAS
NATIONAL WEATHER SERVICE LITTLE ROCK AR
500 AM CDT WED SEP 17 2014

NOTE: "FAIR" INDICATES FEW OR NO CLOUDS BELOW 12,000 FEET WITH NO
SIGNIFICANT WEATHER AND/OR OBSTRUCTIONS TO VISIBILITY.

ARZ001-003-010-029-171100-
NORTHWEST ARKANSAS

CITY           SKY/WX    TMP DP  RH WIND       PRES   REMARKS
FAYETTEVILLE   CLOUDY    67  67 100 S6        30.00F
FORT SMITH     CLOUDY    70  67  90 E7        29.99F
HARRISON       FOG       64  64 100 SE6       30.01F VSB 1/4
BENTONVILLE    CLOUDY    66  64  94 CALM      30.00F
ROGERS         CLOUDY    67  65  93 SE5       30.01F FOG
SILOAM SPGS    CLOUDY    66  63  88 S5        30.00F
HIGHFILL       CLOUDY    65  65 100 S5        29.99F FOG
$$

ARZ004-005-016-171100-
NORTH CENTRAL ARKANSAS

CITY           SKY/WX    TMP DP  RH WIND       PRES   REMARKS
BATESVILLE     CLOUDY    63  61  94 CALM      30.02F
FLIPPIN        CLOUDY    64  57  77 CALM      30.01F
MTN HOME       CLOUDY    64  60  87 S6        30.01F
$$

ARZ040-041-171100-
WEST CENTRAL ARKANSAS

CITY           SKY/WX    TMP DP  RH WIND       PRES   REMARKS
MENA             N/A     70  70 100 CALM        N/A
MOUNT IDA      PTCLDY    65  64  97 CALM      29.99F FOG
$$

ARZ009-017-025-026-028-171100-
NORTHEAST ARKANSAS

CITY           SKY/WX    TMP DP  RH WIND       PRES   REMARKS
CORNING          N/A     59  55  88 NE5       30.05S
JONESBORO      CLOUDY    61  58  90 NE7       30.03S
NEWPORT        CLEAR     60  60 100 VRB5      30.03F
WALNUT RIDGE   CLOUDY    63  57  82 NE5       30.03S
BLYTHEVILLE    CLOUDY    59  57  93 CALM      30.04F
$$

ARZ022-023-033-042-044-171100-
CENTRAL ARKANSAS

CITY           SKY/WX    TMP DP  RH WIND       PRES   REMARKS
LITTLE ROCK    CLEAR     64  58  80 NE3       30.02S
N LITTLE ROCK    N/A     61  60  97 NE5       30.02S
JACKSONVILLE   PTCLDY    61  59  92 CALM      30.02F
SEARCY         CLEAR     60  59  97 CALM      30.03F
HOT SPRINGS    CLEAR     65  63  93 E3        30.02F
RUSSELLVILLE     N/A    N/A N/A N/A MISG      30.02F
CLINTON        FAIR      63  63 100 CALM      30.03F FOG
$$

ARZ036-171100-
EAST ARKANSAS

CITY           SKY/WX    TMP DP  RH WIND       PRES   REMARKS
WEST MEMPHIS   CLEAR     61  60  97 E3        30.01S
$$

ARZ050-053-066-070-073-171100-
SOUTHWEST ARKANSAS

CITY           SKY/WX    TMP DP  RH WIND       PRES   REMARKS
ARKADELPHIA    FAIR      67  66  96 NE5       30.01F
CAMDEN         FOG       64  63  94 CALM      29.99F VSB<1/4
TEXARKANA      MOCLDY    69  69 100 CALM      29.98F FOG
EL DORADO      MOCLDY    68  68 100 CALM      29.98F FOG
DE QUEEN       PTCLDY    69  68  96 E5        29.97F FOG
$$

ARZ056-057-069-171100-
SOUTHEAST ARKANSAS

CITY           SKY/WX    TMP DP  RH WIND       PRES   REMARKS
PINE BLUFF     CLEAR     64  61  90 N5        30.01F
STUTTGART      PTCLDY    63  57  82 NE5       30.02S
MONTICELLO     PTCLDY    69  67  93 CALM      29.99S FOG

$$




USA.gov is the U.S. government's official web portal to all federal, state and local government web resources and services.